TimeCST,TemperatureF,Dew PointF,Humidity,Sea Level PressureIn,VisibilityMPH,Wind Direction,Wind SpeedMPH,Gust SpeedMPH,PrecipitationIn,Events,Conditions,WindDirDegrees,DateUTC
12:53 AM,63.0,61.0,93,29.76,10.0,South,8.1,-,N/A,,Clear,170,2012-12-09 06:53:00
1:53 AM,64.0,61.0,90,29.75,10.0,South,6.9,-,N/A,,Partly Cloudy,170,2012-12-09 07:53:00
2:53 AM,64.9,62.1,90,29.75,10.0,South,5.8,-,N/A,,Scattered Clouds,170,2012-12-09 08:53:00
3:53 AM,64.9,62.1,90,29.76,10.0,South,9.2,-,N/A,,Scattered Clouds,170,2012-12-09 09:53:00
4:53 AM,64.0,62.1,93,29.77,10.0,South,5.8,-,N/A,,Partly Cloudy,190,2012-12-09 10:53:00
6:53 AM,66.0,63.0,90,29.77,10.0,South,9.2,17.3,N/A,,Clear,190,2012-12-09 12:53:00
7:53 AM,66.0,63.0,90,29.79,5.0,South,6.9,-,N/A,,Clear,190,2012-12-09 13:53:00
8:53 AM,66.0,63.0,90,29.80,5.0,SSW,8.1,-,N/A,,Partly Cloudy,200,2012-12-09 14:53:00
9:16 AM,66.2,62.6,88,29.84,5.0,WSW,8.1,-,N/A,,Mostly Cloudy,240,2012-12-09 15:16:00
9:53 AM,66.9,62.1,84,29.84,5.0,West,9.2,17.3,N/A,,Mostly Cloudy,260,2012-12-09 15:53:00
10:53 AM,68.0,59.0,73,29.84,5.0,West,12.7,-,N/A,,Mostly Cloudy,260,2012-12-09 16:53:00
11:00 AM,68.0,57.2,68,29.85,5.0,WSW,9.2,20.7,N/A,,Clear,250,2012-12-09 17:00:00
11:53 AM,64.9,54.0,68,29.84,5.0,NW,18.4,-,N/A,,Clear,320,2012-12-09 17:53:00
12:53 PM,64.0,44.1,48,29.84,10.0,NW,18.4,24.2,N/A,,Clear,310,2012-12-09 18:53:00
1:53 PM,57.0,46.0,67,29.85,10.0,WNW,18.4,25.3,N/A,,Clear,300,2012-12-09 19:53:00
2:34 PM,55.4,46.4,72,29.87,10.0,NW,18.4,25.3,N/A,,Mostly Cloudy,320,2012-12-09 20:34:00
2:53 PM,55.9,46.9,72,29.86,10.0,NW,17.3,-,N/A,,Mostly Cloudy,310,2012-12-09 20:53:00
3:14 PM,55.4,46.4,72,29.87,10.0,NW,19.6,29.9,N/A,,Scattered Clouds,310,2012-12-09 21:14:00
3:35 PM,55.4,46.4,72,29.87,10.0,NW,19.6,27.6,N/A,,Mostly Cloudy,310,2012-12-09 21:35:00
4:53 PM,55.0,46.0,72,29.88,10.0,NNW,16.1,-,N/A,,Mostly Cloudy,330,2012-12-09 22:53:00
5:53 PM,53.1,44.1,71,29.91,10.0,NNW,17.3,-,N/A,,Mostly Cloudy,330,2012-12-09 23:53:00
6:26 PM,53.6,42.8,67,29.93,10.0,NW,19.6,26.5,N/A,,Mostly Cloudy,320,2012-12-10 00:26:00
6:53 PM,53.1,43.0,69,29.93,10.0,NNW,19.6,-,N/A,,Overcast,340,2012-12-10 00:53:00
7:53 PM,51.1,41.0,68,29.94,10.0,NNW,20.7,26.5,N/A,,Overcast,330,2012-12-10 01:53:00
8:53 PM,50.0,36.0,59,29.95,10.0,NNW,23.0,26.5,N/A,,Overcast,340,2012-12-10 02:53:00
9:12 PM,48.2,33.8,58,29.98,10.0,NNW,20.7,-,N/A,,Mostly Cloudy,340,2012-12-10 03:12:00
9:53 PM,46.0,25.0,44,29.99,10.0,NNW,23.0,31.1,N/A,,Mostly Cloudy,340,2012-12-10 03:53:00
10:53 PM,42.1,18.0,38,30.02,10.0,NW,20.7,28.8,N/A,,Mostly Cloudy,320,2012-12-10 04:53:00
11:53 PM,39.0,15.1,38,30.05,10.0,NNW,20.7,31.1,N/A,,Mostly Cloudy,330,2012-12-10 05:53:00